Location: Unspecified
(0.0000°N, 0.0000°E)
Time: 03:47:59
(UTC+00:00)

OTV 5 (USA 277) - Pass Details

Date: 17 February 2019
Orbit: 342 x 346 km, 54.5° (Epoch: 17 February)

Event Time Altitude Azimuth Distance (km) Brightness Sun altitude
Rises 19:11:54 0° 215° (SW) 2,136 ? -14.2°
Reaches altitude 10° 19:13:55 10° 217° (SW) 1,293 ? -14.6°
Maximum altitude 19:16:46 75° 302° (WNW) 358 ? -15.3°
Enters shadow 19:18:03 29° 23° (NNE) 655 ? -15.7°
